Sexton Summit, OR

8:42 PM PDT on October 23, 2019 (GMT -0700)
Sexton Summit

Weather History for KSXT - August, 2019

Change the Weather History Date:

Sunday, August 11, 2019

  Actual Average Record
Temperature  
Mean Temperature 56 °F -  
Max Temperature 68 °F 76 °F 88 °F (2004)
Min Temperature 46 °F 53 °F 43 °F (2006)
Degree Days  
Heating Degree Days 9    
Growing Degree Days 6 (Base 50)    
Moisture  
Dew Point 48 °F    
Average Humidity 77    
Maximum Humidity 100    
Minimum Humidity 50    
Precipitation  
Precipitation 0.00 in - - ()
Sea Level Pressure  
Sea Level Pressure 30.12 in    
Wind  
Wind Speed 5 mph (NNW)    
Max Wind Speed 10 mph    
Max Gust Speed -    
Visibility 8 miles    
Events Fog    
Averages and records for this station are not official NWS values.
T = Trace of Precipitation, MM = Missing Value Source: NWS Daily Summary

Daily Weather History Graph

Daily Weather History Graph

Search for Another Location

Airport or City:

Astronomy

Aug. 11, 2019 Rise Set
Actual Time 6:15 AM PDT 8:20 PM PDT
Civil Twilight 5:44 AM PDT 8:51 PM PDT
Nautical Twilight 5:06 AM PDT 9:29 PM PDT
Astronomical Twilight 4:25 AM PDT 10:10 PM PDT
Moon 6:08 PM PDT (8/11) 2:37 AM PDT (8/11)
Length of Visible Light 15h 06m
Length of Day
14h 05m
Waxing Gibbous, 87% of the Moon is Illuminated
Aug 11
Waxing Gibbous
Aug 15
Full
Aug 23
Last Quarter
Aug 30
New
Sep 5
First Quarter

Hourly Weather History & Observations

Time (PDT) Temp. Windchill Dew Point Humidity Pressure Visibility Wind Dir Wind Speed Gust Speed Precip Events Conditions
12:56 AM 48.9 °F - 48.9 °F 100% 30.06 in 0.2 mi NNW 5.8 mph - N/A Fog Fog
1:18 AM 48.0 °F - 48.0 °F 100% 30.13 in 3.0 mi NNW 5.8 mph - N/A   Overcast
1:31 AM 48.0 °F - 46.9 °F 96% 30.13 in 3.0 mi NW 6.9 mph - N/A   Mostly Cloudy
2:15 AM 48.0 °F - 46.9 °F 96% 30.13 in 0.2 mi NNW 4.6 mph - N/A Fog Fog
2:47 AM 46.9 °F - 46.0 °F 97% 30.13 in 1.0 mi NNW 6.9 mph - N/A   Mostly Cloudy
2:56 AM 46.9 °F - 46.0 °F 97% 30.06 in 2.0 mi NNW 6.9 mph - N/A   Scattered Clouds
3:56 AM 46.0 °F 44.8 °F 45.0 °F 96% 30.08 in 10.0 mi NNW 3.5 mph - N/A   Clear
4:56 AM 48.0 °F - 44.1 °F 86% 30.06 in 10.0 mi NNW 3.5 mph - N/A   Clear
5:56 AM 48.0 °F - 44.1 °F 86% 30.07 in 10.0 mi NNW 3.5 mph - N/A   Clear
6:56 AM 48.0 °F - 45.0 °F 89% 30.10 in 10.0 mi WNW 3.5 mph - N/A   Clear
7:56 AM 48.9 °F - 46.9 °F 93% 30.13 in 10.0 mi North 3.5 mph - N/A   Clear
8:56 AM 53.1 °F - 46.9 °F 80% 30.13 in 10.0 mi Calm Calm - N/A   Clear
9:56 AM 55.9 °F - 48.0 °F 75% 30.13 in 10.0 mi Calm Calm - N/A   Clear
10:45 AM 55.0 °F - 50.0 °F 83% 30.20 in 10.0 mi Variable 3.5 mph - N/A   Scattered Clouds
10:56 AM 55.0 °F - 50.0 °F 83% 30.14 in 10.0 mi Calm Calm - N/A   Scattered Clouds
11:09 AM 54.0 °F - 48.9 °F 83% 30.20 in 10.0 mi Calm Calm - N/A   Mostly Cloudy
11:56 AM 57.0 °F - 50.0 °F 77% 30.14 in 10.0 mi Calm Calm - N/A   Overcast
12:07 PM 61.0 °F - 51.1 °F 70% 30.21 in 10.0 mi SSW 4.6 mph - N/A   Overcast
12:56 PM 60.1 °F - 51.1 °F 72% 30.14 in 10.0 mi Calm Calm - N/A   Overcast
1:26 PM 62.1 °F - 51.1 °F 67% 30.21 in 10.0 mi Variable 4.6 mph - N/A   Scattered Clouds
1:56 PM 63.0 °F - 48.9 °F 60% 30.14 in 10.0 mi Calm Calm - N/A   Clear
2:56 PM 66.0 °F - 48.0 °F 52% 30.12 in 10.0 mi Variable 3.5 mph - N/A   Clear
3:56 PM 66.0 °F - 46.9 °F 50% 30.12 in 10.0 mi Variable 6.9 mph - N/A   Clear
4:56 PM 66.9 °F - 48.0 °F 51% 30.10 in 10.0 mi Variable 3.5 mph - N/A   Clear
5:56 PM 66.9 °F - 48.0 °F 51% 30.10 in 10.0 mi Variable 4.6 mph - N/A   Clear
6:56 PM 64.9 °F - 48.9 °F 56% 30.10 in 10.0 mi Variable 4.6 mph - N/A   Clear
7:56 PM 60.1 °F - 48.9 °F 67% 30.12 in 10.0 mi Variable 3.5 mph - N/A   Clear
8:56 PM 57.9 °F - 48.0 °F 70% 30.12 in 10.0 mi North 9.2 mph - N/A   Clear
9:56 PM 57.9 °F - 46.9 °F 67% 30.12 in 10.0 mi North 9.2 mph - N/A   Clear
10:56 PM 57.0 °F - 46.0 °F 67% 30.12 in 10.0 mi North 10.4 mph - N/A   Clear
11:56 PM 55.9 °F - 46.0 °F 69% 30.11 in 10.0 mi North 10.4 mph - N/A   Clear